Welcome to the New NWS' Forecast!
Most changes are behind the scenes, but click here for differences you might notice.

Regional Weather Roundup (RWR)

Issued by Lake Charles, LA (LCH)

                            
240 
ASUS44 KLCH 201210
RWRLCH
REGIONAL WEATHER ROUNDUP
NATIONAL WEATHER SERVICE LAKE CHARLES LA
700 AM CDT MON AUG 20 2018

Note: "fair" indicates few or no clouds below 12,000 feet with no
significant weather and/or obstructions to visibility.


ACROSS SOUTHEAST TEXAS
  
CITY           SKY/WX    TMP DP  RH WIND       PRES   REMARKS
BEAUMONT       FAIR      79  75  87 S3        29.98R                  
BEAUMONT CITY  FAIR      78  74  88 CALM      29.99R                  
ORANGE         FAIR      80  77  92 SW3       30.00R                  
JASPER         FAIR      74  73  97 CALM      30.01R                  
$$

ACROSS CENTRAL LOUISIANA
  
CITY           SKY/WX    TMP DP  RH WIND       PRES   REMARKS
LEESVILLE      FAIR      77  74  92 W5        29.98R                  
FULLERTON      FAIR      76  76 100 SW5       29.96S                  
ALEXANDRIA INT FAIR      78  74  87 S5        29.96S                  
ESLER FIELD    FAIR      75  75 100 S3        29.98S                  
DERIDDER       FAIR      76  75  95 SW3       30.01R                  
OAKDALE        FAIR      75  74  95 CALM      29.99R                  
OPELOUSAS      FAIR      76  74  95 CALM      30.00R                  
$$

ACROSS SOUTHWEST AND SOUTH CENTRAL LOUISIANA
  
CITY           SKY/WX    TMP DP  RH WIND       PRES   REMARKS
SULPHUR        FAIR      79  70  74 SW5       29.99S                  
LAKE CHARLES   FAIR      80  72  76 SW6       29.98S                  
CHENNAULT INT  CLEAR     79  72  78 S8        29.99S                  
CAMERON PHI    MOSUNNY   84  77  79 SW13G22   29.98R                  
DEQUINCY       FAIR      74  73  96 CALM      29.99S                  
JENNINGS       FAIR      76  74  93 CALM      30.00R                  
LAFAYETTE      FAIR      77  76  96 CALM      30.00R                  
NEW IBERIA     FAIR      76  73  91 CALM      30.01R                  
ABBEVILLE      FAIR      75  75 100 CALM      30.00S                  
PATTERSON      FAIR      76  75  97 CALM      30.02R                  
SALT POINT       N/A    N/A N/A N/A VRB3      29.99R                  
$$

SELECTED SITES ACROSS THE REGION
  
CITY           SKY/WX    TMP DP  RH WIND       PRES   REMARKS
HOUSTON BUSH   MOCLDY    81  78  91 CALM      29.98R                  
HOUSTON HOBBY  FAIR      79  78  97 S6        29.98R                  
GALVESTON      FAIR      84  76  76 S13       29.99R                  
COLLEGE STAT   CLOUDY    79  77  94 S5        29.97R                  
CONROE         CLOUDY    79  78  97 S5        29.99R                  
HUNTSVILLE     CLOUDY    79  75  87 S9        29.98R                  
LUFKIN         CLOUDY    78  75  90 S3        29.97R                  
SHREVEPORT     MOCLDY    81  75  82 SW10      29.93R                  
MONROE         MOCLDY    78  76  93 SW10      29.95R                  
NATCHEZ MS     FAIR      76  75  97 S7        30.00R                  
BATON ROUGE    FAIR      77  73  87 CALM      30.00S                  
N.O. INTL ARPT MOCLDY    80  79  96 S5        30.02R                  
SLIDELL        FAIR      78  75  90 CALM      30.02R                  
$$

MARINE REPORTS
  
STATION/POSITION TIME  SKY/WX   TEMP    WIND        PRES    VSBY
                                AIR SEA DIR/SP/G
                 (UTC)          (F)     (DEG/KT/KT) (MB)    (MI)
BUOY 30 S HIGH I 1150            85 86  210/ 14/ 17 1015.7R
WVE H/P(F/S)=  4/ 6

SEA RIM ST PARK  1200            84     220/ 12/ 15 1015.7R
PORT ARTHUR      1142                   210/  6/  8   N/A
SABINE PASS N    1142                   200/  5/ 10   N/A
TEXAS POINT      NOT AVBL
CALCASIEU PASS   1142            85 87  230/ 12/ 15 1014.7R
LK CHARLES BEACH 1142            81 88              1014.9R
MARSH ISLAND     1100            86                   N/A
FRESH WATER LOCK 1142            84 87  200/  9/ 13 1015.7R
AMERADA PASS     1142            83 84  170/  1/  3 1016.2R
$$